Tracking 18784 objects as of 17-August-2017
HD Live streaming from Space Station
objects crossing your sky now

GORIZONT 30

Track GORIZONT 30 now!
GORIZONT 30 is classified as:


NORAD ID: 23108
Int'l Code: 1994-030A
Perigee: 35,775.8 km
Apogee: 35,822.8 km
Inclination: 14.7 °
Period: 1,436.4 minutes
Semi major axis: 42170 km
RCS: 12.5892 m2 (large)
Launch date: May 20, 1994
Source: Commonwealth of Independent States (former USSR) (CIS)
Launch site: TYURATAM MISSILE AND SPACE COMPLEX (TTMTR)
Your satellite tracking list
Your tracking list is empty





NASA's NSSDC Master Catalog

Two Line Element Set (TLE):
1 23108U 94030A   17227.61643933 +.00000022 +00000-0 +00000-0 0  9998
2 23108 014.7063 015.8863 0005575 220.5513 131.8135 01.00252046085104
Source of the keplerian elements: AFSPC